Weather in Harbour Island

Bahamas     25°29′08″N   76°43′00″W
temp.,
°C
wind,
m/s
gust,
m/s
humid.,
%
clouds,
%
prec.,
mm/h
press.,
hPa
HPBL,
m
27 october, wed
wed2723:00+28wsw67791 0.8 1012724
02:00+28wsw78793 3.3 1010762
05:00+28wsw89791 0.4 1009908
08:00+28w88785 0.9 1011900
11:00+28w787696 0.1 1012951
14:00+28w78735 0.1 1011941
17:00+27wnw67725 0.0 1010878
20:00+27wnw5668100 0.0 1012826
28 october, thu
thu2823:00+27wnw3367100 0.0 1012672
02:00+27wnw3368100 0.0 1012648
05:00+27w1267100 0.0 1011498
08:00+27ssw2269100 0.0 1013442
11:00+27ssw457998 0.3 1013581
14:00+28sw6774100 2.1 1011796
17:00+28sw5676100 2.1 1010616
20:00+28wsw4677100 2.6 1011830
29 october, fri
fri2923:00+28sw788092 0.3 1011634
02:00+28ssw8108172 1.4 1010842
05:00+28sw91180100 2.7 1009899
08:00+28sw91281100 3.9 10101051
11:00+28sw9128098 0.2 10101079
14:00+28sw101279100 2.1 10091124
17:00+28sw91178100 1.6 10081074
20:00+27wsw9107941 3.6 1010902
30 october, sat
sat3023:00+27wsw897748 1.9 1010955
02:00+27w897367 4.0 10091043
05:00+27wsw81071100 0.3 10091136
08:00+27wsw7970100 0.3 10101172
11:00+27wsw8968100 0.1 10111237
14:00+28wsw91064100 0.1 10091428
17:00+28wsw8106472 0.0 10091540
20:00+27w78699 0.1 10111081
31 october, sun
sun3123:00+27wsw78680 0.1 10121129
02:00+26w777091 0.2 10121017
05:00+27wsw796190 0.3 10111380
08:00+26w566548 0.4 10131077
11:00+26wnw566586 0.1 1015830
14:00+27wnw55600 0.2 10141187
17:00+27wnw44610 0.0 1015993
20:00+26nnw44639 0.0 1016947